Portada
METAR-TAF:

METAR-TAF

Aeroports :

La Argelia

Loja, Equador

latitud: 03-59-45S, longitud: 079-22-19W, altitud: 1236 m

Observació

L'informe es va fer fa 4 hores i 31 minuts, a les 19:00 UTC
Vent 10 kt del Nord-Est
Temperatura 29°C
Humitat 35%
Pressió 1014 hPa
Visibilitat 10 km o més
Cel ennuvolat a una alçada de 4000 ft

METAR: SECA 291900Z 05010KT 9999 BKN040 29/12 Q1014

Hora: 18:31 (23:31 UTC)


TAF: manca

Observacions i pronòstics meteorològics de més de 4000 aeroports (METAR i TAF).

Les estacions disponibles són els punts grocs i vermells al mapa.

Posi el ratolí al punt desitjat per veure el nom de l'estació.

Feu clic per veure les observacions i els pronòstics meteorològics.

Per canviar el mapa: feu clic els botons verds amb una creu de color negre per apropar; al botó verd amb un guió per allunyar la imatge; o en les fletxes verdes per a mapes adjacents.


METAR-TAF: